QPF
0.00 0.00 0.00 0.00 0.00 0.00 0.00 0.00 0.00 0.00 0.00 0.00 0.00 0.00 0.00 0.00 0.00 0.00 0.00 0.00 0.00 0.00 0.00 0.00 0.00 0.00 0.00 0.00 0.00 0.00 0.00 0.00 0.00 0.00 0.00 0.00 0.00 0.00 0.00 0.00 0.00 0.00 0.00 0.00
0.00 0.00 0.00 0.00 0.00 0.00 0.00 0.00 0.00 0.00 0.00 0.00 0.00 0.00 0.00 0.00 0.00 0.00 0.00 0.00 0.00 0.00 0.00 0.00 0.00 0.00 0.00 0.00 0.00 0.00 0.00 0.00 0.00 0.00 0.00 0.00 0.00 0.00 0.00 0.00 0.00 0.00 0.00 0.00
0.00 0.00 0.00 0.00 0.00 0.00 0.00 0.00 0.00 0.00 0.00 0.00 0.00 0.00 0.00 0.00 0.00 0.00 0.00 0.00 0.00 0.00 0.00 0.00 0.00 0.00 0.00 0.00 0.00 0.00 0.00 0.00 0.00 0.00 0.00 0.00 0.00 0.00 0.00 0.00 0.00 0.00 0.00 0.00
0.00 0.00 0.00 0.00 0.00 0.00 0.00 0.00 0.00 0.00 0.00 0.00 0.00 0.00 0.00 0.00 0.00 0.00 0.00 0.00 0.00 0.00 0.00 0.00 0.00 0.00 0.00 0.00 0.00 0.00 0.00 0.00 0.00 0.00 0.00 0.00 0.00 0.00 0.00 0.00 0.00 0.00 0.00 0.00
0.00 0.00 0.00 0.00 0.00 0.00 0.00 0.00 0.00 0.00 0.00 0.00 0.00 0.00 0.00 0.00 0.00 0.00 0.00 0.00 0.00 0.00 0.00 0.00 0.00 0.00 0.00 0.00 0.00 0.00 0.00 0.00 0.00 0.00 0.00 0.00 0.00 0.00 0.00 0.00 0.00 0.00 0.00 0.00
0.00 0.00 0.00 0.00 0.00 0.00 0.00 0.00 0.00 0.00 0.00 0.00 0.00 0.00 0.00 0.00 0.00 0.00 0.00 0.00 0.00 0.00 0.00 0.00 0.00 0.00 0.00 0.00 0.00 0.00 0.00 0.00 0.00 0.00 0.00 0.00 0.00 0.00 0.00 0.00 0.00 0.00 0.00 0.00
0.00 0.00 0.00 0.00 0.00 0.00 0.00 0.00 0.00 0.00 0.00 0.00 0.00 0.00 0.00 0.00 0.00 0.00 0.00 0.00 0.00 0.00 0.00 0.00 0.00 0.00 0.00 0.00 0.00 0.00 0.00 0.00 0.00 0.00 0.00 0.00 0.00 0.00 0.00 0.00 0.00 0.00 0.00 0.00
0.00 0.00 0.00 0.00 0.00 0.00 0.00 0.00 0.00 0.00 0.00 0.00 0.00 0.00 0.00 0.00 0.00 0.00 0.00 0.00 0.00 0.00 0.00 0.00 0.00 0.00 0.00 0.00 0.00 0.00 0.00 0.00 0.00 0.00 0.00 0.00 0.00 0.00 0.00 0.00 0.00 0.00 0.00 0.00
0.00 0.00 0.00 0.00 0.00 0.00 0.00 0.00 0.00 0.00 0.00 0.00 0.00 0.00 0.00 0.00 0.00 0.00 0.00 0.00 0.00 0.00 0.00 0.00 0.00 0.00 0.00 0.00 0.00 0.00 0.00 0.00 0.00 0.00 0.00 0.00 0.00 0.00 0.00 0.00 0.00 0.00 0.00 0.00
0.00 0.00 0.00 0.00 0.00 0.00 0.00 0.00 0.00 0.00 0.00 0.00 0.00 0.00 0.00 0.00 0.00 0.00 0.00 0.00 0.00 0.00 0.00 0.00 0.00 0.00 0.00 0.00 0.00 0.00 0.00 0.00 0.00 0.00 0.00 0.00 0.00 0.00 0.00 0.00 0.00 0.00 0.00 0.01
0.00 0.00 0.00 0.00 0.00 0.00 0.00 0.00 0.00 0.00 0.00 0.00 0.00 0.00 0.00 0.00 0.00 0.00 0.00 0.00 0.00 0.00 0.00 0.00 0.00 0.00 0.00 0.00 0.00 0.00 0.00 0.00 0.00 0.00 0.00 0.00 0.00 0.00 0.00 0.00 0.00 0.00 0.01 0.01
0.00 0.00 0.00 0.00 0.00 0.00 0.00 0.00 0.00 0.00 0.00 0.00 0.00 0.00 0.00 0.00 0.00 0.00 0.00 0.00 0.00 0.00 0.00 0.00 0.00 0.00 0.00 0.00 0.00 0.00 0.00 0.00 0.00 0.00 0.00 0.00 0.00 0.00 0.00 0.00 0.00 0.00 0.00 0.01
0.00 0.00 0.00 0.00 0.00 0.00 0.00 0.00 0.00 0.00 0.00 0.00 0.00 0.00 0.00 0.00 0.00 0.00 0.00 0.00 0.00 0.00 0.00 0.00 0.00 0.00 0.00 0.00 0.00 0.00 0.00 0.00 0.00 0.00 0.00 0.00 0.00 0.00 0.00 0.00 0.00 0.00 0.00 0.01
0.00 0.00 0.00 0.00 0.00 0.00 0.00 0.00 0.00 0.00 0.00 0.00 0.00 0.00 0.00 0.00 0.00 0.00 0.00 0.00 0.00 0.00 0.00 0.00 0.00 0.00 0.00 0.00 0.00 0.00 0.00 0.00 0.00 0.00 0.00 0.00 0.00 0.00 0.00 0.00 0.00 0.00 0.00 0.00
0.00 0.00 0.00 0.00 0.00 0.00 0.00 0.00 0.00 0.00 0.00 0.00 0.00 0.00 0.00 0.00 0.00 0.00 0.00 0.00 0.00 0.00 0.00 0.00 0.00 0.00 0.00 0.00 0.00 0.00 0.00 0.00 0.00 0.00 0.00 0.00 0.00 0.00 0.00 0.00 0.00 0.00 0.00 0.00
0.00 0.00 0.00 0.00 0.00 0.00 0.00 0.00 0.00 0.00 0.00 0.00 0.00 0.00 0.00 0.00 0.01 0.01 0.00 0.00 0.00 0.00 0.00 0.00 0.00 0.00 0.00 0.00 0.00 0.00 0.00 0.00 0.00 0.00 0.00 0.00 0.00 0.00 0.00 0.00 0.00 0.00 0.00 0.00
0.00 0.00 0.00 0.00 0.01 0.01 0.01 0.01 0.01 0.01 0.01 0.01 0.01 0.01 0.01 0.01 0.01 0.01 0.00 0.00 0.00 0.00 0.00 0.00 0.00 0.00 0.00 0.00 0.00 0.00 0.00 0.00 0.00 0.00 0.00 0.00 0.00 0.00 0.00 0.00 0.00 0.00 0.00 0.00
0.00 0.00 0.01 0.01 0.01 0.01 0.01 0.01 0.01 0.01 0.01 0.01 0.01 0.01 0.01 0.01 0.01 0.01 0.01 0.00 0.00 0.00 0.00 0.00 0.00 0.00 0.00 0.00 0.00 0.00 0.00 0.00 0.00 0.00 0.00 0.00 0.00 0.00 0.00 0.00 0.00 0.00 0.00 0.00
0.01 0.01 0.01 0.01 0.01 0.01 0.01 0.01 0.01 0.01 0.01 0.01 0.01 0.02 0.02 0.01 0.01 0.01 0.01 0.00 0.00 0.00 0.00 0.00 0.00 0.00 0.00 0.00 0.00 0.00 0.00 0.00 0.00 0.00 0.00 0.00 0.00 0.00 0.00 0.00 0.00 0.00 0.00 0.00
0.01 0.01 0.01 0.01 0.01 0.01 0.01 0.01 0.01 0.01 0.01 0.00 0.00 0.00 0.00 0.00 0.00 0.00 0.00 0.00 0.00 0.00 0.00 0.01 0.01 0.00 0.00 0.00 0.00 0.00 0.00 0.00 0.00 0.00 0.00 0.00 0.00 0.00 0.00 0.00 0.00 0.00 0.00 0.00
0.01 0.01 0.00 0.00 0.00 0.00 0.00 0.00 0.00 0.00 0.00 0.00 0.00 0.00 0.00 0.00 0.00 0.00 0.00 0.00 0.00 0.00 0.00 0.01 0.01 0.01 0.01 0.00 0.00 0.00 0.00 0.00 0.00 0.00 0.00 0.00 0.00 0.00 0.00 0.00 0.01 0.01 0.01 0.00
0.00 0.00 0.00 0.00 0.00 0.00 0.00 0.00 0.00 0.00 0.00 0.00 0.00 0.00 0.00 0.00 0.00 0.00 0.00 0.00 0.00 0.01 0.01 0.01 0.01 0.01 0.01 0.01 0.00 0.00 0.00 0.00 0.00 0.00 0.00 0.00 0.00 0.00 0.01 0.01 0.01 0.01 0.01 0.01
0.00 0.00 0.00 0.00 0.00 0.00 0.00 0.00 0.00 0.00 0.00 0.00 0.00 0.00 0.00 0.00 0.00 0.00 0.00 0.00 0.01 0.01 0.01 0.02 0.02 0.01 0.01 0.01 0.01 0.00 0.00 0.00 0.00 0.00 0.00 0.01 0.01 0.01 0.01 0.01 0.01 0.01 0.01 0.01
0.00 0.00 0.00 0.00 0.00 0.00 0.00 0.00 0.00 0.00 0.00 0.00 0.00 0.00 0.00 0.00 0.00 0.00 0.00 0.00 0.01 0.01 0.02 0.03 0.03 0.02 0.02 0.01 0.01 0.01 0.00 0.00 0.00 0.00 0.00 0.00 0.01 0.01 0.01 0.01 0.01 0.01 0.01 0.01
0.00 0.00 0.00 0.00 0.00 0.00 0.00 0.00 0.00 0.00 0.00 0.00 0.00 0.00 0.00 0.00 0.00 0.00 0.01 0.01 0.01 0.02 0.02 0.03 0.03 0.03 0.02 0.02 0.01 0.01 0.00 0.00 0.00 0.00 0.00 0.00 0.01 0.01 0.01 0.01 0.01 0.01 0.01 0.01
0.00 0.00 0.00 0.00 0.00 0.00 0.00 0.00 0.00 0.00 0.00 0.00 0.00 0.00 0.00 0.00 0.00 0.01 0.01 0.02 0.02 0.03 0.03 0.04 0.04 0.04 0.03 0.02 0.01 0.01 0.00 0.00 0.00 0.00 0.01 0.01 0.01 0.01 0.01 0.01 0.01 0.01 0.01 0.00
0.00 0.00 0.00 0.00 0.00 0.00 0.00 0.00 0.00 0.00 0.00 0.00 0.00 0.00 0.00 0.00 0.01 0.01 0.02 0.02 0.03 0.03 0.03 0.04 0.05 0.05 0.04 0.03 0.02 0.02 0.01 0.01 0.01 0.01 0.01 0.01 0.01 0.01 0.01 0.01 0.01 0.01 0.01 0.00
MSLP
1014.16 1014.40 1014.64 1014.88 1015.09 1015.25 1015.31 1015.27 1015.09 1014.78 1014.38 1013.94 1013.51 1013.16 1012.94 1012.89 1012.99 1013.25 1013.60 1013.99 1014.36 1014.66 1014.85 1014.92 1014.87 1014.74 1014.55 1014.34 1014.13 1013.95 1013.80 1013.66 1013.53 1013.39 1013.23 1013.04 1012.83 1012.59 1012.35 1012.11 1011.87 1011.66 1011.46 1011.28
1014.29 1014.43 1014.52 1014.56 1014.55 1014.50 1014.38 1014.21 1013.98 1013.70 1013.40 1013.11 1012.87 1012.72 1012.67 1012.75 1012.93 1013.20 1013.51 1013.82 1014.10 1014.30 1014.40 1014.42 1014.35 1014.23 1014.07 1013.91 1013.75 1013.61 1013.49 1013.36 1013.23 1013.08 1012.89 1012.66 1012.41 1012.13 1011.85 1011.57 1011.31 1011.06 1010.84 1010.64
1014.52 1014.55 1014.48 1014.34 1014.13 1013.88 1013.61 1013.34 1013.06 1012.81 1012.59 1012.43 1012.35 1012.35 1012.43 1012.60 1012.82 1013.08 1013.33 1013.56 1013.74 1013.85 1013.88 1013.85 1013.78 1013.67 1013.56 1013.45 1013.36 1013.27 1013.19 1013.10 1012.98 1012.82 1012.61 1012.36 1012.07 1011.75 1011.43 1011.10 1010.79 1010.51 1010.25 1010.02
1014.81 1014.70 1014.48 1014.16 1013.78 1013.37 1012.97 1012.61 1012.30 1012.07 1011.92 1011.86 1011.90 1012.01 1012.18 1012.40 1012.64 1012.87 1013.07 1013.22 1013.32 1013.35 1013.33 1013.28 1013.20 1013.13 1013.06 1013.02 1012.99 1012.96 1012.93 1012.87 1012.76 1012.60 1012.38 1012.11 1011.78 1011.43 1011.05 1010.68 1010.32 1009.98 1009.67 1009.39
1015.02 1014.77 1014.39 1013.91 1013.39 1012.86 1012.36 1011.94 1011.62 1011.40 1011.31 1011.32 1011.43 1011.62 1011.85 1012.11 1012.35 1012.56 1012.72 1012.81 1012.85 1012.84 1012.79 1012.73 1012.67 1012.63 1012.62 1012.63 1012.65 1012.68 1012.68 1012.65 1012.55 1012.39 1012.16 1011.86 1011.50 1011.11 1010.69 1010.26 1009.85 1009.45 1009.08 1008.74
1015.02 1014.62 1014.09 1013.49 1012.85 1012.23 1011.68 1011.22 1010.89 1010.70 1010.65 1010.72 1010.89 1011.13 1011.40 1011.68 1011.93 1012.13 1012.27 1012.34 1012.36 1012.33 1012.29 1012.24 1012.21 1012.21 1012.24 1012.29 1012.36 1012.41 1012.43 1012.40 1012.31 1012.13 1011.88 1011.55 1011.17 1010.74 1010.27 1009.80 1009.33 1008.88 1008.45 1008.05
1014.70 1014.16 1013.51 1012.81 1012.09 1011.42 1010.84 1010.38 1010.06 1009.89 1009.88 1009.99 1010.21 1010.49 1010.80 1011.10 1011.37 1011.58 1011.73 1011.82 1011.85 1011.85 1011.84 1011.82 1011.83 1011.86 1011.92 1012.00 1012.08 1012.13 1012.15 1012.11 1011.99 1011.79 1011.51 1011.16 1010.74 1010.27 1009.77 1009.26 1008.75 1008.26 1007.79 1007.35
1014.03 1013.37 1012.64 1011.87 1011.12 1010.43 1009.85 1009.40 1009.10 1008.97 1008.99 1009.14 1009.39 1009.70 1010.05 1010.38 1010.69 1010.94 1011.13 1011.26 1011.34 1011.39 1011.42 1011.46 1011.51 1011.57 1011.65 1011.73 1011.80 1011.83 1011.82 1011.74 1011.59 1011.36 1011.04 1010.65 1010.20 1009.71 1009.19 1008.65 1008.12 1007.60 1007.11 1006.65
1013.10 1012.37 1011.58 1010.79 1010.03 1009.34 1008.78 1008.36 1008.09 1007.99 1008.03 1008.20 1008.48 1008.82 1009.19 1009.56 1009.91 1010.21 1010.46 1010.66 1010.82 1010.94 1011.04 1011.13 1011.22 1011.31 1011.39 1011.46 1011.50 1011.50 1011.45 1011.32 1011.12 1010.84 1010.48 1010.06 1009.59 1009.08 1008.54 1008.00 1007.46 1006.95 1006.46 1006.01
1012.08 1011.32 1010.52 1009.72 1008.98 1008.32 1007.78 1007.39 1007.14 1007.06 1007.11 1007.29 1007.57 1007.93 1008.31 1008.71 1009.10 1009.46 1009.77 1010.05 1010.28 1010.48 1010.65 1010.80 1010.93 1011.04 1011.13 1011.18 1011.19 1011.15 1011.04 1010.86 1010.61 1010.28 1009.89 1009.44 1008.95 1008.43 1007.89 1007.36 1006.84 1006.35 1005.89 1005.47
1011.20 1010.44 1009.65 1008.87 1008.16 1007.53 1007.02 1006.64 1006.41 1006.32 1006.36 1006.52 1006.79 1007.12 1007.50 1007.91 1008.32 1008.72 1009.09 1009.43 1009.73 1010.00 1010.24 1010.44 1010.61 1010.74 1010.83 1010.87 1010.86 1010.77 1010.62 1010.40 1010.10 1009.74 1009.32 1008.85 1008.35 1007.83 1007.31 1006.80 1006.31 1005.86 1005.44 1005.07
1010.66 1009.92 1009.17 1008.42 1007.74 1007.14 1006.64 1006.26 1006.02 1005.89 1005.90 1006.01 1006.22 1006.51 1006.85 1007.23 1007.63 1008.04 1008.44 1008.81 1009.17 1009.49 1009.78 1010.03 1010.23 1010.39 1010.49 1010.53 1010.50 1010.39 1010.22 1009.96 1009.64 1009.26 1008.82 1008.34 1007.84 1007.33 1006.83 1006.34 1005.89 1005.48 1005.11 1004.79
1010.55 1009.85 1009.14 1008.43 1007.78 1007.19 1006.70 1006.30 1006.02 1005.85 1005.79 1005.82 1005.95 1006.16 1006.43 1006.74 1007.09 1007.47 1007.85 1008.23 1008.60 1008.94 1009.26 1009.54 1009.78 1009.96 1010.08 1010.13 1010.11 1010.01 1009.83 1009.58 1009.25 1008.87 1008.43 1007.95 1007.45 1006.95 1006.46 1006.00 1005.58 1005.20 1004.87 1004.60
1010.85 1010.20 1009.53 1008.86 1008.23 1007.66 1007.16 1006.74 1006.41 1006.17 1006.03 1005.96 1005.99 1006.08 1006.24 1006.46 1006.72 1007.02 1007.35 1007.69 1008.03 1008.37 1008.69 1008.99 1009.24 1009.45 1009.60 1009.68 1009.69 1009.62 1009.46 1009.23 1008.92 1008.55 1008.12 1007.65 1007.17 1006.67 1006.19 1005.74 1005.34 1004.98 1004.68 1004.43
1011.43 1010.83 1010.21 1009.58 1008.98 1008.42 1007.91 1007.47 1007.10 1006.79 1006.56 1006.39 1006.30 1006.27 1006.30 1006.39 1006.53 1006.72 1006.95 1007.21 1007.49 1007.79 1008.09 1008.37 1008.64 1008.87 1009.06 1009.18 1009.23 1009.20 1009.09 1008.90 1008.63 1008.28 1007.87 1007.41 1006.93 1006.44 1005.96 1005.51 1005.11 1004.75 1004.46 1004.22
1012.10 1011.56 1010.98 1010.40 1009.83 1009.29 1008.80 1008.35 1007.94 1007.59 1007.28 1007.03 1006.82 1006.66 1006.56 1006.50 1006.50 1006.55 1006.65 1006.80 1006.99 1007.21 1007.46 1007.72 1007.99 1008.23 1008.45 1008.61 1008.72 1008.75 1008.69 1008.55 1008.32 1008.01 1007.62 1007.18 1006.70 1006.21 1005.72 1005.26 1004.84 1004.48 1004.17 1003.93
1012.69 1012.19 1011.66 1011.14 1010.62 1010.12 1009.65 1009.22 1008.81 1008.43 1008.08 1007.75 1007.45 1007.18 1006.94 1006.74 1006.59 1006.49 1006.44 1006.46 1006.54 1006.67 1006.85 1007.07 1007.31 1007.56 1007.80 1008.01 1008.16 1008.25 1008.25 1008.16 1007.97 1007.70 1007.34 1006.91 1006.43 1005.93 1005.44 1004.96 1004.52 1004.14 1003.82 1003.56
1013.06 1012.61 1012.14 1011.67 1011.21 1010.78 1010.36 1009.97 1009.59 1009.22 1008.85 1008.48 1008.11 1007.74 1007.39 1007.06 1006.76 1006.51 1006.32 1006.20 1006.15 1006.18 1006.27 1006.44 1006.65 1006.89 1007.14 1007.38 1007.58 1007.71 1007.76 1007.72 1007.58 1007.33 1007.00 1006.58 1006.11 1005.61 1005.10 1004.61 1004.16 1003.76 1003.42 1003.15
1013.18 1012.77 1012.36 1011.96 1011.57 1011.21 1010.86 1010.53 1010.19 1009.85 1009.49 1009.11 1008.70 1008.27 1007.82 1007.38 1006.96 1006.58 1006.24 1005.99 1005.82 1005.74 1005.76 1005.86 1006.03 1006.26 1006.51 1006.77 1007.00 1007.17 1007.26 1007.26 1007.15 1006.93 1006.62 1006.22 1005.76 1005.26 1004.75 1004.26 1003.80 1003.40 1003.05 1002.77
1013.11 1012.75 1012.39 1012.04 1011.73 1011.43 1011.16 1010.89 1010.61 1010.31 1009.98 1009.59 1009.16 1008.68 1008.17 1007.65 1007.12 1006.62 1006.18 1005.81 1005.53 1005.36 1005.30 1005.34 1005.48 1005.68 1005.94 1006.20 1006.45 1006.65 1006.77 1006.80 1006.72 1006.53 1006.24 1005.86 1005.42 1004.94 1004.45 1003.97 1003.52 1003.13 1002.79 1002.51
1012.97 1012.63 1012.31 1012.01 1011.75 1011.52 1011.30 1011.09 1010.86 1010.60 1010.28 1009.90 1009.46 1008.95 1008.39 1007.80 1007.20 1006.61 1006.08 1005.62 1005.27 1005.02 1004.90 1004.90 1005.00 1005.19 1005.44 1005.71 1005.97 1006.19 1006.33 1006.39 1006.34 1006.18 1005.92 1005.57 1005.16 1004.71 1004.25 1003.80 1003.38 1003.01 1002.69 1002.43
1012.85 1012.53 1012.23 1011.96 1011.73 1011.53 1011.35 1011.17 1010.96 1010.72 1010.41 1010.03 1009.58 1009.04 1008.45 1007.81 1007.15 1006.52 1005.92 1005.41 1005.00 1004.71 1004.56 1004.53 1004.61 1004.79 1005.04 1005.31 1005.59 1005.82 1005.99 1006.06 1006.04 1005.91 1005.69 1005.38 1005.01 1004.60 1004.19 1003.78 1003.40 1003.07 1002.79 1002.55
1012.81 1012.49 1012.19 1011.93 1011.71 1011.52 1011.34 1011.16 1010.96 1010.70 1010.39 1009.99 1009.51 1008.96 1008.33 1007.67 1006.98 1006.32 1005.70 1005.16 1004.73 1004.43 1004.26 1004.22 1004.30 1004.48 1004.73 1005.02 1005.30 1005.55 1005.74 1005.84 1005.85 1005.76 1005.57 1005.31 1004.99 1004.64 1004.27 1003.92 1003.60 1003.31 1003.06 1002.86
1012.83 1012.50 1012.20 1011.93 1011.69 1011.48 1011.28 1011.08 1010.84 1010.56 1010.22 1009.79 1009.29 1008.71 1008.07 1007.39 1006.70 1006.03 1005.41 1004.88 1004.46 1004.17 1004.01 1003.98 1004.07 1004.27 1004.53 1004.83 1005.13 1005.39 1005.60 1005.73 1005.76 1005.71 1005.57 1005.35 1005.09 1004.79 1004.48 1004.19 1003.91 1003.67 1003.46 1003.28
1012.83 1012.50 1012.18 1011.90 1011.63 1011.39 1011.15 1010.91 1010.63 1010.31 1009.92 1009.47 1008.94 1008.35 1007.70 1007.03 1006.35 1005.70 1005.11 1004.61 1004.22 1003.96 1003.83 1003.83 1003.94 1004.15 1004.43 1004.74 1005.05 1005.33 1005.55 1005.70 1005.77 1005.75 1005.65 1005.48 1005.26 1005.02 1004.77 1004.52 1004.29 1004.08 1003.90 1003.74
1012.72 1012.38 1012.06 1011.76 1011.47 1011.19 1010.91 1010.62 1010.30 1009.94 1009.52 1009.04 1008.50 1007.91 1007.28 1006.63 1005.99 1005.39 1004.85 1004.40 1004.06 1003.84 1003.76 1003.79 1003.93 1004.15 1004.44 1004.75 1005.07 1005.36 1005.59 1005.75 1005.84 1005.85 1005.78 1005.66 1005.49 1005.29 1005.08 1004.87 1004.68 1004.50 1004.33 1004.18
1012.41 1012.08 1011.76 1011.45 1011.14 1010.84 1010.53 1010.21 1009.86 1009.47 1009.03 1008.55 1008.02 1007.45 1006.86 1006.26 1005.68 1005.15 1004.68 1004.30 1004.02 1003.86 1003.82 1003.88 1004.04 1004.28 1004.57 1004.88 1005.19 1005.47 1005.70 1005.87 1005.97 1006.00 1005.96 1005.86 1005.73 1005.56 1005.39 1005.21 1005.03 1004.87 1004.72 1004.57
Thickness
5721 5726 5727 5726 5728 5724 5713 5709 5699 5707 5707 5721 5724 5722 5720 5716 5709 5704 5699 5694 5689 5683 5678 5673 5669 5665 5660 5656 5652 5647 5640 5635 5630 5625 5619 5614 5609 5605 5600 5596 5592 5587 5583 5580
5723 5731 5727 5724 5730 5731 5725 5721 5714 5715 5715 5729 5727 5721 5716 5711 5705 5699 5695 5692 5687 5682 5677 5671 5667 5662 5658 5653 5648 5642 5636 5630 5626 5620 5615 5609 5605 5600 5595 5590 5586 5581 5577 5574
5707 5718 5723 5714 5730 5733 5731 5729 5721 5714 5722 5728 5721 5716 5713 5708 5703 5698 5695 5691 5686 5681 5676 5670 5665 5660 5654 5650 5644 5637 5631 5626 5621 5615 5610 5605 5600 5594 5589 5584 5580 5575 5572 5568
5700 5711 5702 5717 5740 5738 5733 5733 5728 5726 5727 5723 5721 5719 5716 5710 5703 5698 5695 5690 5685 5680 5674 5669 5663 5657 5651 5645 5639 5633 5627 5622 5617 5611 5605 5600 5594 5589 5584 5579 5574 5570 5567 5563
5690 5694 5703 5723 5738 5736 5730 5729 5733 5727 5726 5720 5715 5713 5710 5711 5705 5701 5697 5692 5686 5680 5674 5667 5661 5654 5647 5641 5635 5628 5623 5618 5612 5606 5600 5595 5589 5584 5579 5573 5569 5565 5561 5557
5688 5692 5691 5719 5743 5744 5733 5718 5734 5727 5720 5712 5708 5695 5702 5714 5706 5701 5696 5690 5684 5678 5670 5663 5658 5650 5642 5637 5630 5625 5620 5614 5608 5602 5595 5590 5584 5579 5574 5569 5564 5560 5557 5553
5688 5689 5700 5731 5741 5738 5710 5712 5738 5729 5721 5710 5707 5710 5714 5714 5706 5701 5695 5689 5682 5675 5667 5661 5655 5646 5638 5633 5627 5623 5616 5610 5604 5598 5591 5585 5580 5575 5570 5565 5560 5556 5552 5549
5683 5686 5698 5739 5733 5723 5725 5740 5739 5732 5725 5717 5716 5715 5711 5708 5703 5697 5691 5686 5679 5671 5664 5659 5651 5642 5635 5630 5626 5619 5612 5606 5600 5594 5587 5583 5576 5571 5565 5560 5555 5551 5547 5544
5698 5706 5728 5735 5735 5740 5739 5736 5737 5733 5729 5723 5716 5711 5708 5703 5698 5694 5689 5683 5676 5668 5661 5654 5647 5639 5632 5629 5622 5614 5607 5601 5595 5589 5583 5577 5571 5566 5561 5556 5551 5548 5544 5540
5701 5715 5727 5732 5735 5738 5739 5738 5740 5737 5732 5724 5716 5713 5707 5701 5696 5691 5686 5679 5672 5663 5656 5650 5644 5637 5631 5625 5618 5609 5603 5596 5590 5584 5579 5573 5567 5562 5557 5554 5549 5545 5541 5537
5700 5712 5720 5731 5735 5737 5738 5738 5736 5734 5730 5725 5718 5712 5706 5700 5695 5690 5683 5676 5667 5660 5653 5648 5642 5635 5629 5621 5613 5605 5598 5592 5586 5580 5574 5569 5564 5559 5555 5551 5545 5541 5538 5533
5698 5713 5710 5716 5728 5732 5731 5731 5731 5727 5724 5720 5716 5712 5705 5699 5694 5687 5680 5672 5663 5656 5650 5644 5637 5631 5625 5617 5608 5600 5593 5587 5581 5575 5570 5565 5561 5558 5555 5550 5545 5540 5534 5528
5704 5712 5709 5712 5717 5720 5722 5724 5724 5721 5719 5715 5711 5707 5701 5694 5688 5680 5673 5665 5659 5654 5647 5640 5632 5626 5621 5612 5604 5595 5588 5582 5576 5571 5566 5561 5557 5554 5552 5551 5546 5541 5536 5530
5698 5699 5695 5696 5699 5705 5709 5713 5714 5711 5708 5705 5702 5697 5691 5685 5678 5672 5667 5662 5657 5650 5643 5635 5628 5622 5616 5607 5598 5591 5583 5578 5572 5566 5561 5557 5553 5550 5547 5544 5543 5542 5537 5530
5682 5682 5679 5682 5687 5691 5695 5698 5697 5695 5694 5692 5690 5685 5680 5674 5669 5666 5661 5655 5648 5641 5636 5629 5623 5618 5611 5603 5594 5586 5579 5573 5568 5563 5559 5554 5551 5548 5545 5542 5540 5538 5535 5532
5665 5668 5669 5670 5671 5673 5677 5677 5676 5675 5676 5676 5675 5673 5669 5665 5661 5657 5652 5645 5639 5634 5630 5624 5619 5615 5606 5598 5589 5582 5575 5571 5566 5561 5556 5553 5550 5547 5544 5541 5539 5536 5533 5530
5652 5650 5651 5651 5652 5654 5656 5657 5657 5658 5659 5660 5659 5658 5655 5651 5648 5644 5641 5637 5633 5630 5625 5619 5614 5609 5600 5592 5584 5577 5571 5565 5562 5558 5553 5550 5547 5545 5542 5539 5537 5535 5532 5529
5637 5636 5636 5636 5637 5638 5641 5642 5642 5642 5641 5642 5644 5643 5639 5636 5634 5633 5630 5626 5622 5620 5617 5613 5608 5601 5594 5587 5579 5572 5566 5560 5556 5553 5550 5548 5546 5543 5541 5538 5536 5534 5532 5529
5625 5624 5624 5625 5625 5625 5625 5626 5626 5625 5625 5625 5626 5625 5623 5621 5620 5619 5617 5614 5611 5610 5611 5606 5600 5594 5587 5581 5574 5567 5561 5556 5552 5549 5547 5545 5543 5542 5539 5537 5535 5532 5530 5528
5610 5610 5611 5611 5612 5611 5610 5611 5611 5610 5610 5610 5609 5609 5608 5607 5606 5605 5604 5602 5603 5603 5601 5596 5591 5586 5581 5574 5569 5561 5556 5552 5549 5546 5544 5542 5541 5539 5537 5535 5533 5531 5529 5527
5594 5594 5594 5594 5594 5594 5594 5593 5593 5593 5593 5593 5592 5591 5591 5591 5591 5589 5588 5591 5595 5591 5588 5586 5582 5578 5573 5567 5562 5555 5551 5547 5544 5541 5540 5539 5537 5536 5534 5533 5531 5529 5527 5525
5577 5577 5578 5577 5576 5576 5577 5576 5575 5576 5576 5576 5575 5575 5574 5574 5575 5575 5576 5576 5580 5578 5576 5575 5573 5570 5564 5559 5554 5549 5545 5542 5539 5536 5535 5534 5533 5532 5531 5530 5528 5526 5524 5523
5560 5560 5560 5560 5559 5558 5559 5560 5560 5559 5559 5558 5558 5557 5557 5557 5557 5558 5563 5566 5565 5565 5564 5564 5562 5559 5554 5549 5545 5541 5538 5536 5533 5531 5530 5529 5528 5527 5527 5526 5525 5523 5522 5520
5544 5543 5543 5543 5542 5542 5543 5545 5544 5543 5542 5542 5542 5541 5540 5541 5545 5546 5546 5549 5550 5551 5552 5550 5548 5546 5542 5539 5536 5532 5530 5528 5526 5524 5524 5524 5523 5522 5522 5522 5521 5520 5518 5517
5527 5526 5527 5526 5526 5526 5527 5526 5526 5526 5527 5527 5527 5527 5527 5525 5526 5530 5532 5535 5536 5537 5538 5538 5536 5533 5531 5528 5525 5522 5520 5519 5518 5517 5517 5517 5517 5517 5517 5516 5516 5515 5515 5514
5511 5510 5510 5509 5509 5509 5509 5509 5508 5509 5509 5510 5511 5512 5512 5513 5513 5515 5517 5520 5523 5523 5524 5524 5523 5521 5519 5516 5514 5512 5510 5510 5509 5509 5510 5510 5510 5511 5511 5511 5511 5511 5510 5509
5496 5495 5495 5496 5497 5496 5495 5494 5493 5494 5494 5493 5494 5496 5496 5497 5499 5501 5503 5506 5508 5509 5510 5509 5509 5508 5506 5505 5503 5502 5500 5500 5500 5500 5501 5502 5503 5503 5504 5505 5505 5506 5505 5505